Regional Weather Roundup
Issued by NWS

Home | Current Version | Previous Version | Graphics & Text | Print | Product List | Glossary On
Versions: 1 2 3 4 5 6 7 8 9 10 11 12 13 14 15 16 17 18 19 20 21 22 23 24 25 26 27 28 29 30 31 32 33 34 35 36 37 38 39 40 41 42 43 44 45 46 47 48 49 50
481
ASUS43 KLOT 251508
RWRIL

ILLINOIS REGIONAL WEATHER ROUNDUP
NATIONAL WEATHER SERVICE CHICAGO/ROMEOVILLE IL
1000 AM CDT TUE APR 25 2017

NOTE: "FAIR" INDICATES FEW OR NO CLOUDS BELOW 12,000 FEET WITH NO
SIGNIFICANT WEATHER AND/OR OBSTRUCTIONS TO VISIBILITY.

* THESE STATIONS ARE NOT UNDER NWS QUALITY CONTROL. THEY ALSO MAY NOT
  REPORT WEATHER SUCH AS PRECIPITATION OR FOG.

ILZ001-002-007-009-015-016-024-251600-
NORTHWEST ILLINOIS

CITY           SKY/WX    TMP DP  RH WIND       PRES   REMARKS
MOLINE         MOSUNNY   68  43  40 S8        29.60
STERLING*      MOSUNNY   69  45  41 VRB6      29.65
SAVANNA*       MOSUNNY   66  43  43 S12       29.63F
$$

ILZ003-004-008-010-011-017-018-251600-
NORTH CENTRAL ILLINOIS

CITY           SKY/WX    TMP DP  RH WIND       PRES   REMARKS
ROCKFORD       PTSUNNY   69  48  47 S14       29.68
FREEPORT*      SUNNY     65  44  45 S16       29.67S
ROCHELLE*      SUNNY     68  46  45 S18       29.68S
DE KALB*       MOSUNNY   67  49  52 S14G20    29.69S
PERU*          MOSUNNY   68  47  47 S13       29.67F
$$

ILZ005-006-012>014-019>023-251600-
NORTHEAST ILLINOIS

CITY           SKY/WX    TMP DP  RH WIND       PRES   REMARKS
CHICAGO-OHARE  PTSUNNY   68  49  50 S10       29.69
CHICAGO-MIDWAY PTSUNNY   67  51  56 S12       29.71
AURORA         SUNNY     68  51  54 S10G18    29.70
LANSING*       SUNNY     65  56  71 S10       29.72F
JOLIET*        SUNNY     68  52  56 S7        29.70F
WAUKEGAN       MOSUNNY   61  52  72 SE7       29.69
DUPAGE AIRPORT SUNNY     67  51  56 S12       29.69
KANKAKEE*      SUNNY     71  49  46 S8        29.72F
WHEELING       MOSUNNY   67  53  61 S10       29.71
MORRIS*        SUNNY     70  49  47 S7        29.68F
ROMEOVILLE*    SUNNY     67  54  62 S10       29.71S
NORTHERLY ISL    N/A     65  52  62 SE6         N/A
$$

LMZ740>746-251600-
SOUTHERN LAKE MICHIGAN

STATION/POSITION SKY/WX   TEMP    WIND        PRES    VSBY  WAVE
                          AIR SEA DIR/SP/G                  HT/PER
                          (F)     (DEG/KT/KT) (MB)    (MI)  (FT/S)
$$

ILZ025>027-034>036-040-047-049-050-058-095>099-251600-
WEST-CENTRAL ILLINOIS

CITY           SKY/WX    TMP DP  RH WIND       PRES   REMARKS
QUINCY         MOSUNNY   67  46  47 S10       29.61
GALESBURG*     SUNNY     68  47  46 S8        29.62F
MACOMB*        SUNNY     69  44  39 S13       29.64S
JACKSONVILLE*  SUNNY     70  47  44 S15       29.64F
PITTSFIELD*    SUNNY     68  48  48 S13G18    29.64S
$$

ILZ028>032-037-038-041>044-048-051>054-059>061-251600-
CENTRAL ILLINOIS

CITY           SKY/WX    TMP DP  RH WIND       PRES   REMARKS
PONTIAC        SUNNY     72  49  45 S14       29.70F
BLOOMINGTON    CLOUDY    69  52  54 S17       29.69
DECATUR        SUNNY     70  55  59 S15       29.70
PEORIA         MOSUNNY   68  50  52 S10       29.65
LACON*         MOSUNNY   69  48  47 S12       29.65F
LINCOLN*       PTSUNNY   70  53  53 S13       29.67F
SPRINGFIELD    SUNNY     72  48  42 S14       29.66
TAYLORVILLE    MOSUNNY   69  52  53 S13G18    29.69F
$$

ILZ033-039-045-046-055>057-062-063-251600-
EAST-CENTRAL ILLINOIS

CITY           SKY/WX    TMP DP  RH WIND       PRES   REMARKS
CHAMPAIGN      SUNNY     72  50  45 S12       29.72
RANTOUL*       SUNNY     72  52  49 S12G17    29.72F
MATTOON        SUNNY     67  55  65 S8        29.73
PARIS*         SUNNY     69  55  60 SE7       29.75S
$$

ILZ079-100>102-251600-
SOUTHWEST ILLINOIS

CITY           SKY/WX    TMP DP  RH WIND       PRES   REMARKS
ALTON          MOSUNNY   70  50  49 S15G21    29.68
BELLEVILLE     SUNNY     70  55  59 E9        29.67
CAHOKIA*       SUNNY     70  51  51 S9G18     29.67
SPARTA*        SUNNY     67  53  61 S13       29.71S
$$

ILZ064>066-069>071-074>076-080>082-084>086-088>090-092>094-251600-
SOUTH-CENTRAL ILLINOIS

CITY           SKY/WX    TMP DP  RH WIND       PRES   REMARKS
CARBONDALE     SUNNY     69  59  70 S10       29.72
CAIRO*         SUNNY     66  58  76 SE8       29.74F
EFFINGHAM*     SUNNY     69  57  65 S6        29.74F
MARION         MOSUNNY   68  59  73 S9        29.74
MT. VERNON     MOSUNNY   69  57  65 S9        29.73
CENTRALIA*     MOSUNNY   69  57  65 S9        29.72S
SALEM*         MOSUNNY   70  54  57 S8        29.72F
METROPOLIS*    SUNNY     69  58  68 S5        29.76S
$$

ILZ067-068-072-073-078-083-087-091-251600-
SOUTHEAST ILLINOIS

CITY           SKY/WX    TMP DP  RH WIND       PRES   REMARKS
LAWRENCEVILLE  SUNNY     68  55  63 S6        29.76
FLORA*         SUNNY     68  58  68 S7        29.74S
FAIRFIELD*     SUNNY     69  58  67 S6        29.73F
HARRISBURG*    SUNNY     68  59  72 SW6       29.75F
ROBINSON*      SUNNY     67  55  63 S6        29.76S
CARMI*         SUNNY     68  59  72 S6        29.75F
$$

ABBREVIATIONS USED IN REMARKS
   TC - TEMPERATURE IN CELSIUS
  WCI - WIND CHILL INDEX
   HX - HEAT INDEX
  VSB - VISIBILITY
$$





USA.gov is the U.S. government's official web portal to all federal, state and local government web resources and services.